Flag for Canada Weather past 2 weeks in Ottawa, Ontario, Canada

Now
28 °F

Overcast.


Feels Like: 17 °F
Forecast: 24 / 33 °F
Wind: 14 mph from Northwest

Location: Ottawa Int'L. Ont.

Current Time: Dec 18, 2014 at 12:38:13 PM

Latest Report: Dec 18, 2014 at 12:00 PM


Visibility: 15 mi

Pressure: 29.97 "Hg

Humidity: 86%

Dew point: 25 °F

Location of OttawaLocation

Historic Weather in Ottawa — Graph

°F

Ottawa temperature yesterday

Maximum temperature yesterday: 32 °F (at 12:00 AM)
Minimum temperature yesterday: 32 °F (at 12:00 AM)
Average temperature yesterday: 32 °F

Past Weeks' High & Low Weather Summary

 TemperatureHumidityPressure
High36 °F (Dec 3, 12:00 PM)100% (Dec 3, 11:00 AM)30.84 "Hg (Dec 3, 11:00 AM)
Low3 °F (Dec 5, 2:00 AM)41% (Dec 7, 2:00 PM)29.64 "Hg (Dec 11, 4:00 AM)
Average25 °F83%30.13 "Hg
* Reported Dec 3 11:00 AM — Dec 18 11:00 AM, Ottawa, Weather by CustomWeather, © 2014

Note: Actual official high and low records may vary slightly from our data, if they occured in-between our weather recording intervals... More about our weather records

Advertising

Ottawa weather history for previous 24 hours

 ConditionsComfort  
Time TempWeatherWind HumidityBarometerVisibility
11:00 AM
Dec 18
28 °FLight snow. Overcast.14 mph86%29.98 "Hg10 mi
10:00 AM28 °FLight snow. Ice fog.13 mph93%29.98 "Hg4 mi
9:00 AM28 °FLight snow. Ice fog.16 mph93%29.95 "Hg5 mi
8:00 AM28 °FLight snow. Ice fog.15 mph100%29.93 "Hg1 mi
7:52 AM28 °FLight snow. Ice fog.14 mph100%29.92 "Hg2 mi
7:00 AM30 °FLight snow. Low clouds.15 mph93%29.90 "Hg10 mi
6:00 AM30 °FLight snow. Low clouds.15 mph93%29.88 "Hg8 mi
5:00 AM30 °FLight snow. Ice fog.13 mph100%29.86 "Hg5 mi
4:00 AM32 °FLight snow. Ice fog.14 mph93%29.85 "Hg3 mi
3:00 AM32 °FLight snow. Ice fog.13 mph100%29.83 "Hg5 mi
2:00 AM32 °FLight snow. Ice fog.10 mph100%29.82 "Hg2 mi
1:00 AM32 °FLight snow. Ice fog.10 mph100%29.80 "Hg2 mi
12:00 AM32 °FLight snow. Ice fog.8 mph100%29.80 "Hg2 mi
11:00 PM
Dec 17
32 °FLight snow. Ice fog.8 mph100%29.80 "Hg2 mi
10:00 PM32 °FLight snow. Ice fog.8 mph100%29.80 "Hg3 mi
9:48 PM32 °FLight snow. Ice fog.9 mph100%29.79 "Hg3 mi
9:00 PM32 °FLight snow. Ice fog.8 mph100%29.80 "Hg2 mi
8:00 PM32 °FLight snow. Ice fog.8 mph100%29.80 "Hg4 mi
7:00 PM32 °FLight snow. Ice fog.8 mph100%29.80 "Hg6 mi
6:00 PM32 °FLight snow. Mostly cloudy.8 mph100%29.79 "Hg8 mi
5:00 PM32 °FLight snow. Ice fog.7 mph100%29.78 "Hg2 mi
4:00 PM32 °FLight snow. Ice fog.6 mph100%29.77 "Hg2 mi
3:00 PM32 °FLight snow. Ice fog.7 mph100%29.76 "Hg1 mi
2:00 PM32 °FChilly.6 mph100%29.74 "Hg1 mi
1:00 PM32 °FLight rain. Fog.3 mph100%29.74 "Hg0 mi
12:00 PM32 °FLight rain. Fog.5 mph100%29.75 "Hg0 mi
Weather by CustomWeather, © 2014

See weather overviewHow to use our weather pages